Radiation Dose at Monitoring Post of Fukushima Daini Nuclear Power Station
Date,Time,MP-1(microSv/h),MP-2(microSv/h),MP-3(microSv/h),MP-4(microSv/h),MP-5(microSv/h),MP-6(microSv/h),MP-7(microSv/h),Wind Direction,Wind Velocity(m/s),Rain
2018/02/16,00:00,0.343,0.209,0.343,0.325,0.306,0.170,0.102,west-northwest,3.4,No
2018/02/16,00:10,0.343,0.209,0.342,0.325,0.305,0.170,0.102,west,2.2,No
2018/02/16,00:20,0.342,0.208,0.344,0.325,0.305,0.171,0.102,west-northwest,3.8,No
2018/02/16,00:30,0.343,0.208,0.342,0.325,0.305,0.169,0.102,west-northwest,3.2,No
2018/02/16,00:40,0.343,0.208,0.343,0.324,0.306,0.170,0.102,northwest,1.9,No
2018/02/16,00:50,0.343,0.209,0.345,0.326,0.305,0.171,0.102,-,CALM,No
2018/02/16,01:00,0.343,0.208,0.342,0.325,0.306,0.170,0.102,-,CALM,No
2018/02/16,01:10,0.344,0.209,0.341,0.324,0.307,0.170,0.102,north-northwest,0.9,No
2018/02/16,01:20,0.342,0.209,0.343,0.325,0.305,0.170,0.102,west-southwest,0.8,No
2018/02/16,01:30,0.342,0.208,0.342,0.323,0.307,0.170,0.102,northwest,1.4,No
2018/02/16,01:40,0.341,0.207,0.343,0.323,0.306,0.170,0.102,west-northwest,3.0,No
2018/02/16,01:50,0.341,0.207,0.342,0.324,0.306,0.170,0.102,west-northwest,2.8,No
2018/02/16,02:00,0.344,0.209,0.343,0.325,0.307,0.170,0.102,north-northwest,1.8,No
2018/02/16,02:10,0.342,0.208,0.343,0.323,0.305,0.171,0.102,west-northwest,1.0,No
2018/02/16,02:20,0.342,0.207,0.344,0.324,0.304,0.170,0.101,north-northwest,1.7,No
2018/02/16,02:30,0.342,0.208,0.343,0.323,0.306,0.170,0.102,north,1.4,No
2018/02/16,02:40,0.343,0.208,0.344,0.325,0.305,0.171,0.102,north-northwest,0.9,No
2018/02/16,02:50,0.343,0.209,0.343,0.325,0.306,0.170,0.102,north,3.3,No
2018/02/16,03:00,0.342,0.209,0.342,0.325,0.307,0.170,0.102,north,4.7,No
2018/02/16,03:10,0.342,0.208,0.343,0.326,0.306,0.170,0.102,north-northwest,5.7,No
2018/02/16,03:20,0.341,0.208,0.342,0.326,0.304,0.170,0.103,north,4.7,No
2018/02/16,03:30,0.342,0.209,0.343,0.324,0.305,0.171,0.102,north,5.1,No
2018/02/16,03:40,0.343,0.208,0.343,0.324,0.306,0.170,0.102,north,5.3,No
2018/02/16,03:50,0.342,0.209,0.343,0.326,0.306,0.170,0.102,north,5.7,No
2018/02/16,04:00,0.345,0.209,0.344,0.324,0.306,0.171,0.102,north,7.1,No
2018/02/16,04:10,0.342,0.209,0.342,0.326,0.306,0.171,0.102,north,7.5,No
2018/02/16,04:20,0.342,0.209,0.342,0.325,0.304,0.171,0.102,north,7.4,No
2018/02/16,04:30,0.342,0.209,0.343,0.326,0.307,0.170,0.102,north,7.9,No
2018/02/16,04:40,0.343,0.208,0.343,0.323,0.306,0.170,0.103,north,7.0,No
2018/02/16,04:50,0.344,0.208,0.344,0.324,0.306,0.170,0.102,north,5.9,No
2018/02/16,05:00,0.344,0.209,0.343,0.324,0.305,0.171,0.102,north,4.4,No
2018/02/16,05:10,0.342,0.208,0.343,0.325,0.306,0.171,0.102,north-northeast,5.7,No
2018/02/16,05:20,0.342,0.207,0.342,0.325,0.304,0.170,0.102,north,5.8,No
2018/02/16,05:30,0.343,0.208,0.342,0.325,0.305,0.171,0.102,north,6.1,No
2018/02/16,05:40,0.342,0.208,0.343,0.323,0.306,0.171,0.102,north,5.7,No
2018/02/16,05:50,0.341,0.208,0.343,0.325,0.305,0.170,0.102,north,6.0,No
2018/02/16,06:00,0.342,0.208,0.343,0.324,0.305,0.171,0.102,north,5.8,No
2018/02/16,06:10,0.343,0.207,0.343,0.325,0.305,0.170,0.101,north,3.9,No
2018/02/16,06:20,0.342,0.208,0.344,0.326,0.306,0.170,0.103,north,4.3,No
2018/02/16,06:30,0.343,0.208,0.344,0.326,0.305,0.170,0.102,west-northwest,0.8,No
2018/02/16,06:40,0.342,0.208,0.344,0.325,0.307,0.171,0.102,northwest,1.0,No
2018/02/16,06:50,0.343,0.208,0.344,0.325,0.306,0.171,0.102,north-northwest,2.6,No
2018/02/16,07:00,0.342,0.209,0.343,0.325,0.304,0.171,0.102,northwest,4.3,No
2018/02/16,07:10,0.343,0.208,0.342,0.325,0.305,0.170,0.102,northwest,2.7,No
2018/02/16,07:20,0.343,0.208,0.343,0.324,0.306,0.170,0.102,northeast,1.3,No
2018/02/16,07:30,0.342,0.208,0.342,0.325,0.305,0.170,0.102,north-northeast,2.7,No
2018/02/16,07:40,0.342,0.208,0.343,0.323,0.307,0.170,0.102,north-northeast,3.1,No
2018/02/16,07:50,0.341,0.207,0.343,0.325,0.306,0.170,0.102,north,2.7,No
2018/02/16,08:00,0.343,0.209,0.344,0.324,0.306,0.170,0.102,north,1.9,No
2018/02/16,08:10,0.342,0.209,0.343,0.325,0.305,0.171,0.102,north-northeast,1.6,No
2018/02/16,08:20,0.344,0.208,0.343,0.323,0.307,0.171,0.103,northeast,2.3,No
2018/02/16,08:30,0.341,0.208,0.344,0.325,0.306,0.170,0.102,north,2.5,No
2018/02/16,08:40,0.343,0.208,0.343,0.323,0.305,0.171,0.101,north-northeast,3.8,No
2018/02/16,08:50,0.341,0.208,0.343,0.323,0.306,0.170,0.103,north-northwest,2.4,No
2018/02/16,09:00,0.343,0.209,0.343,0.324,0.306,0.170,0.102,north,1.8,No
2018/02/16,09:10,0.342,0.207,0.343,0.323,0.306,0.171,0.102,west-northwest,1.4,No
2018/02/16,09:20,0.343,0.208,0.343,0.324,0.307,0.171,0.102,west-northwest,1.8,No
2018/02/16,09:30,0.344,0.208,0.344,0.322,0.305,0.170,0.102,west-northwest,1.9,No
2018/02/16,09:40,0.341,0.208,0.342,0.324,0.305,0.170,0.101,northwest,2.8,No
2018/02/16,09:50,0.342,0.207,0.343,0.324,0.305,0.170,0.101,south-southeast,2.0,No
2018/02/16,10:00,0.339,0.207,0.343,0.322,0.305,0.170,0.101,west-southwest,5.2,No
2018/02/16,10:10,0.340,0.207,0.343,0.324,0.305,0.170,0.101,west-northwest,4.0,No
2018/02/16,10:20,0.340,0.207,0.341,0.323,0.307,0.169,0.101,west-northwest,3.8,No
2018/02/16,10:30,0.339,0.208,0.343,0.322,0.306,0.169,0.102,west,5.1,No
2018/02/16,10:40,0.340,0.207,0.343,0.322,0.306,0.170,0.101,west-northwest,3.6,No
2018/02/16,10:50,0.339,0.208,0.342,0.322,0.307,0.170,0.101,northwest,4.2,No
2018/02/16,11:00,0.340,0.208,0.341,0.323,0.306,0.171,0.101,west,3.0,No
2018/02/16,11:10,0.342,0.207,0.342,0.324,0.308,0.170,0.102,northwest,3.4,No
2018/02/16,11:20,0.341,0.208,0.343,0.323,0.307,0.170,0.102,north-northwest,3.7,No
2018/02/16,11:30,0.341,0.208,0.340,0.324,0.305,0.170,0.101,southeast,3.1,No
2018/02/16,11:40,0.342,0.207,0.341,0.323,0.306,0.170,0.102,east-southeast,4.4,No
2018/02/16,11:50,0.340,0.207,0.342,0.324,0.305,0.170,0.101,east-southeast,3.8,No
2018/02/16,12:00,0.341,0.208,0.340,0.325,0.306,0.170,0.102,east,3.8,No
2018/02/16,12:10,0.340,0.208,0.341,0.325,0.308,0.171,0.101,east,4.2,No
2018/02/16,12:20,0.339,0.207,0.341,0.326,0.306,0.170,0.102,east,4.0,No
2018/02/16,12:30,0.342,0.208,0.341,0.325,0.309,0.171,0.102,east,3.3,No
2018/02/16,12:40,0.339,0.207,0.340,0.324,0.305,0.170,0.101,east,3.8,No
2018/02/16,12:50,0.341,0.208,0.339,0.326,0.308,0.171,0.102,east-southeast,3.2,No
2018/02/16,13:00,0.341,0.208,0.343,0.325,0.307,0.172,0.101,east,1.5,No
2018/02/16,13:10,0.342,0.207,0.340,0.325,0.306,0.170,0.102,east,1.1,No
2018/02/16,13:20,0.343,0.209,0.341,0.324,0.307,0.170,0.101,east-southeast,2.6,No
2018/02/16,13:30,0.341,0.209,0.341,0.323,0.305,0.170,0.101,southeast,2.1,No
2018/02/16,13:40,0.341,0.208,0.341,0.324,0.307,0.171,0.102,south,0.7,No
2018/02/16,13:50,0.343,0.208,0.343,0.325,0.307,0.171,0.102,-,CALM,No
2018/02/16,14:00,0.342,0.208,0.342,0.323,0.307,0.170,0.101,south-southeast,1.4,No
2018/02/16,14:10,0.344,0.208,0.342,0.324,0.308,0.170,0.102,south,2.6,No
2018/02/16,14:20,0.343,0.207,0.343,0.325,0.305,0.171,0.102,south,2.4,No
2018/02/16,14:30,0.339,0.207,0.344,0.325,0.309,0.171,0.103,east,1.8,No
2018/02/16,14:40,0.343,0.208,0.344,0.325,0.307,0.171,0.102,east,1.1,No
2018/02/16,14:50,0.342,0.208,0.341,0.326,0.306,0.170,0.102,south-southeast,1.7,No
2018/02/16,15:00,0.341,0.210,0.344,0.325,0.307,0.170,0.103,south,1.5,No
2018/02/16,15:10,0.343,0.209,0.343,0.325,0.307,0.171,0.102,south-southeast,1.6,No
2018/02/16,15:20,0.341,0.208,0.343,0.326,0.307,0.170,0.102,south-southeast,1.2,No
2018/02/16,15:30,0.341,0.209,0.341,0.327,0.307,0.170,0.102,east-southeast,2.3,No
2018/02/16,15:40,0.341,0.208,0.342,0.325,0.307,0.172,0.102,south-southeast,2.4,No
2018/02/16,15:50,0.342,0.208,0.342,0.324,0.306,0.170,0.102,south,2.3,No
2018/02/16,16:00,0.343,0.208,0.342,0.326,0.307,0.170,0.102,east-southeast,0.6,No
2018/02/16,16:10,0.342,0.208,0.343,0.326,0.307,0.170,0.103,south-southeast,1.8,No
2018/02/16,16:20,0.342,0.209,0.344,0.324,0.305,0.171,0.101,southeast,2.6,No
2018/02/16,16:30,0.341,0.207,0.343,0.325,0.308,0.171,0.102,south-southeast,4.2,No
2018/02/16,16:40,0.343,0.209,0.344,0.325,0.306,0.171,0.102,south,2.5,No
2018/02/16,16:50,0.343,0.208,0.343,0.324,0.306,0.171,0.102,south,0.6,No
2018/02/16,17:00,0.344,0.207,0.342,0.326,0.306,0.172,0.101,south-southwest,1.4,No
2018/02/16,17:10,0.342,0.207,0.343,0.324,0.307,0.171,0.103,south-southwest,1.9,No
2018/02/16,17:20,0.343,0.210,0.343,0.326,0.307,0.171,0.103,south,1.0,No
2018/02/16,17:30,0.340,0.209,0.342,0.326,0.305,0.171,0.102,south,3.2,No
2018/02/16,17:40,0.342,0.208,0.342,0.326,0.306,0.171,0.103,south,2.9,No
2018/02/16,17:50,0.344,0.208,0.342,0.327,0.307,0.171,0.102,south,3.3,No
2018/02/16,18:00,0.341,0.208,0.344,0.325,0.307,0.171,0.101,south-southwest,3.1,No
2018/02/16,18:10,0.342,0.207,0.344,0.326,0.306,0.171,0.102,south-southwest,3.9,No
2018/02/16,18:20,0.342,0.208,0.342,0.326,0.305,0.171,0.102,south-southwest,5.2,No
2018/02/16,18:30,0.342,0.208,0.342,0.325,0.306,0.171,0.103,south-southwest,5.0,No
2018/02/16,18:40,0.344,0.207,0.342,0.325,0.306,0.170,0.102,south-southwest,4.1,No
2018/02/16,18:50,0.343,0.209,0.342,0.325,0.305,0.171,0.102,south-southwest,3.5,No
2018/02/16,19:00,0.342,0.209,0.342,0.324,0.306,0.171,0.102,south-southwest,2.8,No
2018/02/16,19:10,0.342,0.208,0.342,0.327,0.305,0.171,0.102,south-southwest,3.2,No
2018/02/16,19:20,0.342,0.209,0.343,0.325,0.307,0.170,0.103,south-southwest,3.4,No
2018/02/16,19:30,0.343,0.208,0.342,0.326,0.307,0.170,0.102,south-southwest,3.1,No
2018/02/16,19:40,0.342,0.209,0.343,0.326,0.306,0.171,0.102,south-southwest,3.4,No
2018/02/16,19:50,0.342,0.209,0.343,0.325,0.306,0.171,0.102,south-southwest,2.6,No
2018/02/16,20:00,0.342,0.209,0.342,0.325,0.306,0.171,0.102,south-southwest,2.9,No
2018/02/16,20:10,0.341,0.207,0.342,0.326,0.305,0.171,0.102,south-southwest,4.0,No
2018/02/16,20:20,0.343,0.209,0.344,0.325,0.306,0.172,0.102,south-southwest,2.8,No
2018/02/16,20:30,0.342,0.208,0.344,0.323,0.305,0.171,0.102,south-southwest,3.2,No
2018/02/16,20:40,0.342,0.209,0.343,0.325,0.306,0.171,0.102,south-southwest,2.5,No
2018/02/16,20:50,0.343,0.210,0.342,0.325,0.306,0.172,0.102,south-southwest,2.7,No
2018/02/16,21:00,0.344,0.208,0.343,0.326,0.306,0.171,0.103,southwest,2.4,No
2018/02/16,21:10,0.343,0.208,0.344,0.325,0.306,0.171,0.102,southwest,2.3,No
2018/02/16,21:20,0.343,0.208,0.344,0.324,0.307,0.170,0.102,west-southwest,1.8,No
2018/02/16,21:30,0.342,0.209,0.343,0.326,0.306,0.170,0.102,west-southwest,1.3,No
2018/02/16,21:40,0.343,0.209,0.343,0.326,0.306,0.171,0.102,southwest,1.4,No
2018/02/16,21:50,0.343,0.208,0.343,0.325,0.306,0.170,0.103,west,0.6,No
2018/02/16,22:00,0.344,0.210,0.344,0.324,0.307,0.170,0.101,northwest,0.9,No
2018/02/16,22:10,0.342,0.209,0.343,0.325,0.304,0.170,0.102,northwest,1.1,No
2018/02/16,22:20,0.342,0.209,0.343,0.326,0.306,0.171,0.103,west-northwest,1.2,No
2018/02/16,22:30,0.342,0.209,0.342,0.327,0.307,0.171,0.102,west-northwest,1.1,No
2018/02/16,22:40,0.341,0.209,0.342,0.325,0.307,0.171,0.102,west-southwest,1.0,No
2018/02/16,22:50,0.342,0.209,0.344,0.325,0.306,0.170,0.102,west,0.7,No
2018/02/16,23:00,0.345,0.208,0.342,0.325,0.306,0.170,0.102,-,CALM,No
2018/02/16,23:10,0.343,0.208,0.343,0.325,0.307,0.170,0.102,-,CALM,No
2018/02/16,23:20,0.342,0.208,0.344,0.326,0.307,0.172,0.103,-,CALM,No
2018/02/16,23:30,0.342,0.209,0.343,0.326,0.306,0.171,0.103,north-northeast,0.7,No
2018/02/16,23:40,0.342,0.208,0.342,0.325,0.307,0.170,0.103,north-northwest,0.8,No
2018/02/16,23:50,0.343,0.208,0.344,0.326,0.306,0.171,0.103,north-northwest,0.8,No
